{"data":{"norad_id":41434,"intl_designator":"2016-021A","name":"BEIDOU-2 IGSO-6 (C13)","alt_names":[],"object_type":"PAYLOAD","status":"ACTIVE","operator":null,"country":"PRC","launch_date":"2016-03-29","launch_site_code":"XICLF","launch_vehicle":null,"mission":null,"orbit_class":"UNKNOWN","rcs_meters":26.1904,"size_class":null,"mass_kg":null,"dimensions":null,"purposes":["comms","nav"],"wikipedia_slug":null,"has_3d_model":false,"image_url":null,"decayed_at":null,"tle_current":{"epoch":"2026-09-19T21:05:52.575936Z","epoch_age_seconds":68143,"freshness":"FRESH","line1":"1 41434U 16021A   26262.87908074 -.00000139  00000+0  00000+0 0  9999","line2":"2 41434  60.3651  37.1053 0061975 228.1851 146.4566  1.00281482 38439","mean_motion":1.00281482,"eccentricity":0.0061975,"inclination_deg":60.3651,"raan_deg":37.1053,"arg_perigee_deg":228.1851,"mean_anomaly_deg":146.4566,"bstar":0,"rev_number":3843,"period_min":1435.9580365994,"perigee_km":35522.577678864,"apogee_km":36045.175839408,"semimajor_km":42162.013759136,"source":"CELESTRAK","updated_at":"2026-09-20T09:00:46.674366Z"}}}